| time (UTC) | temp F | wind direction | speed MPH | gust MPH | rain 1hr in | rain 24hr in | rain mn in | humidity % | barometer mb |
| 20260831154030 | 82 | 299 | 2.0 | 4.0 | 0.00 | 0.00 | 0.00 | 82 | 1009.1 |
| 20260831153609 | 82 | 286 | 0.0 | 3.0 | 0.00 | 0.00 | 0.00 | 83 | 1009.0 |
| 20260831153018 | 82 | 304 | 0.0 | 3.0 | 0.00 | 0.00 | 0.00 | 85 | 1008.9 |
| 20260831152554 | 82 | 318 | 0.0 | 3.0 | 0.00 | 0.00 | 0.00 | 84 | 1008.9 |
| 20260831152037 | 81 | 320 | 1.0 | 3.0 | 0.00 | 0.00 | 0.00 | 84 | 1008.8 |
| 20260831151559 | 81 | 101 | 0.0 | 5.0 | 0.00 | 0.00 | 0.00 | 86 | 1008.8 |
| 20260831151012 | 81 | 310 | 1.0 | 5.0 | 0.00 | 0.00 | 0.00 | 84 | 1008.9 |
| 20260831150552 | 81 | 300 | 1.0 | 3.0 | 0.00 | 0.00 | 0.00 | 85 | 1008.9 |
| 20260831150030 | 80 | 324 | 0.0 | 5.0 | 0.00 | 0.00 | 0.00 | 86 | 1008.8 |
| 20260831145608 | 80 | 355 | 1.0 | 5.0 | 0.00 | 0.00 | 0.00 | 85 | 1008.8 |
| 20260831145018 | 80 | 304 | 0.0 | 5.0 | 0.00 | 0.00 | 0.00 | 85 | 1008.6 |
| 20260831144552 | 79 | 313 | 1.0 | 6.0 | 0.00 | 0.00 | 0.00 | 86 | 1008.5 |
| 20260831144005 | 79 | 315 | 0.0 | 5.0 | 0.00 | 0.00 | 0.00 | 87 | 1008.3 |
| 20260831143554 | 79 | 313 | 1.0 | 5.0 | 0.00 | 0.00 | 0.00 | 85 | 1008.3 |
| 20260831143025 | 79 | 323 | 1.0 | 4.0 | 0.00 | 0.00 | 0.00 | 85 | 1008.2 |
| 20260831142547 | 79 | 343 | 0.0 | 3.0 | 0.00 | 0.00 | 0.00 | 86 | 1008.1 |
| 20260831142037 | 79 | 309 | 0.0 | 4.0 | 0.00 | 0.00 | 0.00 | 88 | 1008.1 |
| 20260831141529 | 79 | 306 | 0.0 | 6.0 | 0.00 | 0.00 | 0.00 | 87 | 1008.0 |
| 20260831141105 | 79 | 300 | 0.0 | 6.0 | 0.00 | 0.00 | 0.00 | 87 | 1008.0 |
| 20260831140514 | 78 | 300 | 1.0 | 4.0 | 0.00 | 0.00 | 0.00 | 87 | 1008.1 |
| 20260831140038 | 78 | 311 | 0.0 | 3.0 | 0.00 | 0.00 | 0.00 | 88 | 1008.0 |
| 20260831135515 | 78 | 310 | 0.0 | 4.0 | 0.00 | 0.00 | 0.00 | 87 | 1007.8 |
| 20260831135009 | 78 | 306 | 0.0 | 4.0 | 0.00 | 0.00 | 0.00 | 88 | 1007.9 |
| 20260831134542 | 77 | 306 | 1.0 | 3.0 | 0.00 | 0.00 | 0.00 | 88 | 1007.8 |
| 20260831134015 | 77 | 307 | 0.0 | 4.0 | 0.00 | 0.00 | 0.00 | 90 | 1007.7 |
| 20260831133541 | 76 | 302 | 1.0 | 6.0 | 0.00 | 0.00 | 0.00 | 89 | 1007.7 |
| 20260831133112 | 76 | 302 | 2.0 | 8.0 | 0.00 | 0.00 | 0.00 | 89 | 1007.6 |
| 20260831132543 | 76 | 317 | 2.0 | 8.0 | 0.00 | 0.00 | 0.00 | 90 | 1007.5 |
| 20260831132024 | 75 | 306 | 2.0 | 6.0 | 0.00 | 0.00 | 0.00 | 90 | 1007.6 |
| 20260831131554 | 75 | 312 | 0.0 | 7.0 | 0.00 | 0.00 | 0.00 | 91 | 1007.6 |
| 20260831131007 | 75 | 304 | 2.0 | 5.0 | 0.00 | 0.00 | 0.00 | 91 | 1007.5 |
| 20260831130531 | 74 | 316 | 1.0 | 5.0 | 0.00 | 0.00 | 0.00 | 92 | 1007.4 |
| 20260831130009 | 74 | 293 | 2.0 | 5.0 | 0.00 | 0.00 | 0.00 | 93 | 1007.3 |
| 20260831125556 | 74 | 331 | 1.0 | 5.0 | 0.00 | 0.00 | 0.00 | 93 | 1007.2 |
| 20260831125028 | 73 | 292 | 2.0 | 4.0 | 0.00 | 0.00 | 0.00 | 94 | 1007.2 |
| 20260831124509 | 73 | 307 | 1.0 | 5.0 | 0.00 | 0.00 | 0.00 | 94 | 1007.0 |
| 20260831124045 | 73 | 292 | 1.0 | 5.0 | 0.00 | 0.00 | 0.00 | 94 | 1007.1 |
| 20260831123526 | 73 | 311 | 1.0 | 5.0 | 0.00 | 0.00 | 0.00 | 95 | 1007.2 |
| 20260831123059 | 73 | 323 | 2.0 | 5.0 | 0.00 | 0.00 | 0.00 | 95 | 1007.2 |
| 20260831122541 | 72 | 317 | 0.0 | 3.0 | 0.00 | 0.00 | 0.00 | 95 | 1007.2 |
| 20260831122009 | 72 | 317 | 0.0 | 3.0 | 0.00 | 0.00 | 0.00 | 96 | 1007.1 |
| 20260831121554 | 72 | 321 | 0.0 | 0.0 | 0.00 | 0.00 | 0.00 | 95 | 1007.0 |
| 20260831121027 | 72 | 321 | 0.0 | 3.0 | 0.00 | 0.00 | 0.00 | 95 | 1007.0 |
| 20260831120511 | 72 | 321 | 0.0 | 3.0 | 0.00 | 0.00 | 0.00 | 95 | 1007.0 |
| 20260831120044 | 72 | 321 | 0.0 | 2.0 | 0.00 | 0.00 | 0.00 | 95 | 1007.0 |
| 20260831115529 | 72 | 322 | 0.0 | 3.0 | 0.00 | 0.00 | 0.00 | 95 | 1006.8 |
| 20260831115056 | 72 | 323 | 1.0 | 3.0 | 0.00 | 0.00 | 0.00 | 95 | 1006.7 |
| 20260831114525 | 72 | 306 | 0.0 | 3.0 | 0.00 | 0.00 | 0.00 | 95 | 1006.6 |
| 20260831114039 | 71 | 306 | 0.0 | 3.0 | 0.00 | 0.00 | 0.00 | 95 | 1006.5 |
| 20260831113532 | 72 | 310 | 0.0 | 0.0 | 0.00 | 0.00 | 0.00 | 94 | 1006.4 |
| 20260831113055 | 72 | 310 | 0.0 | 0.0 | 0.00 | 0.00 | 0.00 | 94 | 1006.5 |
| 20260831112529 | 72 | 310 | 0.0 | 0.0 | 0.00 | 0.00 | 0.00 | 95 | 1006.4 |
| 20260831112014 | 72 | 310 | 0.0 | 1.0 | 0.00 | 0.00 | 0.00 | 95 | 1006.3 |
| 20260831111601 | 72 | 311 | 0.0 | 2.0 | 0.00 | 0.00 | 0.00 | 95 | 1006.4 |
| 20260831111001 | 72 | 309 | 0.0 | 2.0 | 0.00 | 0.00 | 0.00 | 94 | 1006.2 |
| 20260831110556 | 72 | 310 | 0.0 | 1.0 | 0.00 | 0.00 | 0.00 | 94 | 1006.1 |
| 20260831110040 | 72 | 310 | 0.0 | 2.0 | 0.00 | 0.00 | 0.00 | 94 | 1005.9 |
| 20260831105556 | 72 | 309 | 0.0 | 2.0 | 0.00 | 0.00 | 0.00 | 94 | 1005.9 |
| 20260831105032 | 72 | 301 | 0.0 | 2.0 | 0.00 | 0.00 | 0.00 | 94 | 1005.8 |
| 20260831104557 | 72 | 279 | 0.0 | 2.0 | 0.00 | 0.00 | 0.00 | 94 | 1005.9 |
| 20260831104043 | 72 | 275 | 0.0 | 3.0 | 0.00 | 0.00 | 0.00 | 94 | 1005.9 |
| 20260831103522 | 72 | 271 | 0.0 | 3.0 | 0.00 | 0.00 | 0.00 | 94 | 1006.0 |
| 20260831103105 | 73 | 333 | 1.0 | 3.0 | 0.00 | 0.00 | 0.00 | 95 | 1006.0 |
| 20260831102516 | 73 | 313 | 0.0 | 4.0 | 0.00 | 0.00 | 0.00 | 94 | 1006.0 |
| 20260831102005 | 73 | 293 | 1.0 | 4.0 | 0.00 | 0.00 | 0.00 | 95 | 1006.1 |
| 20260831101536 | 72 | 263 | 0.0 | 2.0 | 0.00 | 0.00 | 0.00 | 94 | 1006.0 |
| 20260831101054 | 72 | 262 | 0.0 | 2.0 | 0.00 | 0.00 | 0.00 | 94 | 1005.8 |
| 20260831100504 | 73 | 261 | 0.0 | 2.0 | 0.00 | 0.00 | 0.00 | 94 | 1006.0 |
| 20260831100041 | 73 | 260 | 0.0 | 5.0 | 0.00 | 0.00 | 0.00 | 94 | 1006.0 |
| 20260831095520 | 73 | 257 | 0.0 | 5.0 | 0.00 | 0.00 | 0.00 | 94 | 1005.9 |
| 20260831095040 | 73 | 291 | 0.0 | 3.0 | 0.00 | 0.00 | 0.00 | 94 | 1005.8 |
| 20260831094606 | 73 | 305 | 0.0 | 3.0 | 0.00 | 0.00 | 0.00 | 94 | 1005.8 |
| 20260831094034 | 73 | 288 | 0.0 | 3.0 | 0.00 | 0.00 | 0.00 | 94 | 1005.9 |
| 20260831093511 | 73 | 295 | 0.0 | 4.0 | 0.00 | 0.00 | 0.00 | 94 | 1006.0 |
| 20260831093053 | 73 | 318 | 1.0 | 4.0 | 0.00 | 0.00 | 0.00 | 94 | 1006.0 |
| 20260831092525 | 73 | 288 | 0.0 | 1.0 | 0.00 | 0.00 | 0.00 | 94 | 1006.0 |
| 20260831092100 | 73 | 306 | 0.0 | 1.0 | 0.00 | 0.00 | 0.00 | 94 | 1006.0 |
| 20260831091526 | 73 | 321 | 0.0 | 3.0 | 0.00 | 0.00 | 0.00 | 93 | 1005.9 |
| 20260831091015 | 73 | 321 | 0.0 | 3.0 | 0.00 | 0.00 | 0.00 | 93 | 1005.9 |
| 20260831090536 | 73 | 186 | 0.0 | 3.0 | 0.00 | 0.00 | 0.00 | 93 | 1005.8 |
| 20260831090057 | 73 | 277 | 0.0 | 2.0 | 0.00 | 0.00 | 0.00 | 93 | 1005.8 |
| 20260831085521 | 73 | 272 | 0.0 | 5.0 | 0.00 | 0.00 | 0.00 | 93 | 1005.9 |
| 20260831085050 | 73 | 311 | 1.0 | 4.0 | 0.00 | 0.00 | 0.00 | 93 | 1005.9 |
| 20260831084612 | 73 | 297 | 0.0 | 5.0 | 0.00 | 0.00 | 0.00 | 93 | 1005.9 |
| 20260831084020 | 73 | 297 | 0.0 | 5.0 | 0.00 | 0.00 | 0.00 | 94 | 1005.9 |
| 20260831083540 | 73 | 261 | 0.0 | 6.0 | 0.00 | 0.00 | 0.00 | 93 | 1005.8 |
| 20260831083111 | 72 | 282 | 0.0 | 4.0 | 0.00 | 0.00 | 0.00 | 93 | 1005.7 |
| 20260831082535 | 72 | 321 | 1.0 | 4.0 | 0.00 | 0.00 | 0.00 | 93 | 1005.7 |
| 20260831082054 | 72 | 236 | 1.0 | 4.0 | 0.00 | 0.00 | 0.00 | 93 | 1005.6 |
| 20260831081504 | 73 | 266 | 1.0 | 4.0 | 0.00 | 0.00 | 0.00 | 93 | 1005.6 |
| 20260831081027 | 73 | 275 | 0.0 | 3.0 | 0.00 | 0.00 | 0.00 | 93 | 1005.7 |
| 20260831080544 | 73 | 264 | 0.0 | 4.0 | 0.00 | 0.00 | 0.00 | 93 | 1005.7 |
| 20260831080104 | 73 | 301 | 0.0 | 4.0 | 0.00 | 0.00 | 0.00 | 93 | 1005.6 |
| 20260831075538 | 73 | 279 | 1.0 | 4.0 | 0.00 | 0.00 | 0.00 | 93 | 1005.7 |
| 20260831075003 | 73 | 311 | 1.0 | 4.0 | 0.00 | 0.00 | 0.00 | 92 | 1005.7 |
| 20260831074538 | 73 | 338 | 1.0 | 4.0 | 0.00 | 0.00 | 0.00 | 92 | 1005.7 |
| 20260831074006 | 73 | 183 | 1.0 | 4.0 | 0.00 | 0.00 | 0.00 | 92 | 1005.7 |
| 20260831073526 | 73 | 206 | 1.0 | 4.0 | 0.00 | 0.00 | 0.00 | 92 | 1005.6 |
| 20260831073057 | 73 | 211 | 1.0 | 4.0 | 0.00 | 0.00 | 0.00 | 92 | 1005.7 |
| 20260831072520 | 73 | 173 | 0.0 | 5.0 | 0.00 | 0.00 | 0.00 | 92 | 1005.6 |
| 20260831072039 | 73 | 281 | 0.0 | 5.0 | 0.00 | 0.00 | 0.00 | 92 | 1005.6 |
| 20260831071559 | 73 | 257 | 1.0 | 4.0 | 0.00 | 0.00 | 0.00 | 92 | 1005.7 |
| 20260831071010 | 73 | 185 | 2.0 | 6.0 | 0.00 | 0.00 | 0.00 | 92 | 1005.7 |
| 20260831070545 | 73 | 300 | 1.0 | 6.0 | 0.00 | 0.00 | 0.00 | 92 | 1005.8 |
| 20260831065551 | 73 | 198 | 1.0 | 5.0 | 0.00 | 0.00 | 0.00 | 91 | 1006.0 |
| 20260831065025 | 73 | 292 | 1.0 | 6.0 | 0.00 | 0.00 | 0.00 | 91 | 1006.0 |
| 20260831064554 | 73 | 297 | 2.0 | 6.0 | 0.00 | 0.00 | 0.00 | 91 | 1006.2 |
| 20260831064011 | 73 | 323 | 2.0 | 6.0 | 0.00 | 0.00 | 0.00 | 91 | 1006.2 |
| 20260831063502 | 73 | 231 | 2.0 | 6.0 | 0.00 | 0.00 | 0.00 | 91 | 1006.2 |
| 20260831063030 | 73 | 211 | 1.0 | 5.0 | 0.00 | 0.00 | 0.00 | 91 | 1006.3 |
| 20260831062518 | 73 | 184 | 1.0 | 5.0 | 0.00 | 0.00 | 0.00 | 91 | 1006.3 |
| 20260831062036 | 73 | 299 | 1.0 | 5.0 | 0.00 | 0.00 | 0.00 | 91 | 1006.4 |
| 20260831061510 | 73 | 239 | 1.0 | 4.0 | 0.00 | 0.00 | 0.00 | 90 | 1006.5 |
| 20260831061033 | 73 | 238 | 0.0 | 4.0 | 0.00 | 0.00 | 0.00 | 90 | 1006.5 |
| 20260831060503 | 73 | 271 | 1.0 | 5.0 | 0.00 | 0.00 | 0.00 | 90 | 1006.5 |
| 20260831060048 | 73 | 169 | 2.0 | 5.0 | 0.00 | 0.00 | 0.00 | 90 | 1006.6 |
| 20260831055519 | 73 | 198 | 0.0 | 3.0 | 0.00 | 0.00 | 0.00 | 90 | 1006.6 |
| 20260831055039 | 73 | 202 | 0.0 | 3.0 | 0.00 | 0.00 | 0.00 | 90 | 1006.6 |
| 20260831054600 | 73 | 204 | 1.0 | 5.0 | 0.00 | 0.00 | 0.00 | 90 | 1006.6 |
| 20260831054025 | 73 | 297 | 1.0 | 5.0 | 0.00 | 0.00 | 0.00 | 89 | 1006.8 |
| 20260831053558 | 73 | 283 | 2.0 | 5.0 | 0.00 | 0.00 | 0.00 | 89 | 1006.7 |
| 20260831053007 | 74 | 175 | 1.0 | 5.0 | 0.00 | 0.00 | 0.00 | 89 | 1006.9 |
| 20260831052544 | 74 | 141 | 1.0 | 5.0 | 0.00 | 0.00 | 0.00 | 89 | 1007.0 |
| 20260831052103 | 74 | 321 | 2.0 | 5.0 | 0.00 | 0.00 | 0.00 | 89 | 1007.0 |
| 20260831051538 | 74 | 167 | 1.0 | 5.0 | 0.00 | 0.00 | 0.00 | 89 | 1007.0 |
| 20260831051011 | 74 | 215 | 0.0 | 3.0 | 0.00 | 0.00 | 0.00 | 89 | 1007.1 |
| 20260831050535 | 74 | 284 | 0.0 | 5.0 | 0.00 | 0.00 | 0.00 | 89 | 1007.2 |
| 20260831050052 | 74 | 298 | 1.0 | 5.0 | 0.00 | 0.00 | 0.00 | 89 | 1007.2 |
| 20260831045502 | 74 | 223 | 1.0 | 4.0 | 0.00 | 0.00 | 0.00 | 89 | 1007.2 |
| 20260831045042 | 74 | 197 | 0.0 | 5.0 | 0.00 | 0.00 | 0.00 | 89 | 1007.2 |
| 20260831044516 | 74 | 315 | 1.0 | 5.0 | 0.00 | 0.00 | 0.00 | 89 | 1007.2 |
| 20260831044037 | 74 | 175 | 1.0 | 5.0 | 0.00 | 0.00 | 0.00 | 89 | 1007.3 |
| 20260831043600 | 74 | 232 | 0.0 | 5.0 | 0.00 | 0.00 | 0.00 | 89 | 1007.3 |
| 20260831043030 | 74 | 207 | 1.0 | 5.0 | 0.00 | 0.00 | 0.00 | 89 | 1007.3 |
| 20260831042552 | 74 | 227 | 1.0 | 5.0 | 0.00 | 0.00 | 0.00 | 89 | 1007.3 |
| 20260831042011 | 74 | 242 | 1.0 | 5.0 | 0.00 | 0.00 | 0.00 | 89 | 1007.2 |
| 20260831041550 | 74 | 205 | 1.0 | 3.0 | 0.00 | 0.00 | 0.00 | 89 | 1007.2 |
| 20260831041100 | 74 | 228 | 1.0 | 4.0 | 0.00 | 0.00 | 0.00 | 89 | 1007.3 |
| 20260831040534 | 74 | 327 | 0.0 | 5.0 | 0.00 | 0.00 | 0.00 | 89 | 1007.3 |
| 20260831040058 | 74 | 248 | 1.0 | 5.0 | 0.00 | 0.00 | 0.00 | 89 | 1007.3 |
| 20260831035514 | 74 | 189 | 0.0 | 4.0 | 0.00 | 0.00 | 0.00 | 89 | 1007.2 |
| 20260831035051 | 74 | 269 | 1.0 | 4.0 | 0.00 | 0.00 | 0.00 | 89 | 1007.1 |
| 20260831034501 | 74 | 294 | 1.0 | 4.0 | 0.00 | 0.00 | 0.00 | 88 | 1007.2 |
| 20260831034027 | 74 | 169 | 2.0 | 5.0 | 0.00 | 0.00 | 0.00 | 88 | 1007.1 |
| 20260831033606 | 74 | 200 | 1.0 | 6.0 | 0.00 | 0.00 | 0.00 | 88 | 1007.1 |
| 20260831033027 | 74 | 173 | 2.0 | 7.0 | 0.00 | 0.00 | 0.00 | 88 | 1007.3 |
| 20260831032505 | 74 | 232 | 2.0 | 8.0 | 0.00 | 0.00 | 0.00 | 88 | 1007.3 |
| 20260831032033 | 74 | 169 | 0.0 | 5.0 | 0.00 | 0.00 | 0.00 | 87 | 1007.3 |
| 20260831031516 | 75 | 177 | 2.0 | 5.0 | 0.00 | 0.00 | 0.00 | 87 | 1007.3 |
| 20260831031048 | 75 | 168 | 1.0 | 6.0 | 0.00 | 0.00 | 0.00 | 87 | 1007.3 |
| 20260831030502 | 75 | 246 | 2.0 | 6.0 | 0.00 | 0.00 | 0.00 | 86 | 1007.1 |
| 20260831030028 | 75 | 183 | 1.0 | 10.0 | 0.00 | 0.00 | 0.00 | 86 | 1007.1 |
| 20260831025608 | 75 | 223 | 1.0 | 10.0 | 0.00 | 0.00 | 0.00 | 86 | 1007.0 |
| 20260831025024 | 75 | 273 | 3.0 | 9.0 | 0.00 | 0.00 | 0.00 | 86 | 1007.0 |
| 20260831024545 | 75 | 322 | 1.0 | 6.0 | 0.00 | 0.00 | 0.00 | 85 | 1007.2 |
| 20260831024029 | 75 | 232 | 1.0 | 5.0 | 0.00 | 0.00 | 0.00 | 85 | 1007.1 |
| 20260831023506 | 76 | 132 | 2.0 | 5.0 | 0.00 | 0.00 | 0.00 | 84 | 1007.1 |
| 20260831023045 | 76 | 192 | 1.0 | 6.0 | 0.00 | 0.00 | 0.00 | 84 | 1007.1 |
| 20260831022503 | 76 | 238 | 2.0 | 8.0 | 0.00 | 0.00 | 0.00 | 84 | 1007.2 |
| 20260831022035 | 76 | 350 | 2.0 | 12.0 | 0.00 | 0.00 | 0.00 | 84 | 1007.2 |
| 20260831021509 | 76 | 244 | 2.0 | 8.0 | 0.00 | 0.00 | 0.00 | 83 | 1007.2 |
| 20260831021044 | 76 | 189 | 1.0 | 7.0 | 0.00 | 0.00 | 0.00 | 83 | 1007.2 |
| 20260831020526 | 77 | 177 | 2.0 | 5.0 | 0.00 | 0.00 | 0.00 | 82 | 1007.2 |
| 20260831020103 | 77 | 211 | 1.0 | 5.0 | 0.00 | 0.00 | 0.00 | 82 | 1007.3 |
| 20260831015544 | 77 | 302 | 2.0 | 7.0 | 0.00 | 0.00 | 0.00 | 82 | 1007.3 |
| 20260831015022 | 77 | 269 | 3.0 | 7.0 | 0.00 | 0.00 | 0.00 | 81 | 1007.3 |
| 20260831014508 | 77 | 144 | 1.0 | 4.0 | 0.00 | 0.00 | 0.00 | 81 | 1007.3 |
| 20260831014051 | 78 | 162 | 1.0 | 5.0 | 0.00 | 0.00 | 0.00 | 80 | 1007.4 |
| 20260831013531 | 78 | 187 | 0.0 | 7.0 | 0.00 | 0.00 | 0.00 | 80 | 1007.3 |
| 20260831013015 | 78 | 163 | 1.0 | 6.0 | 0.00 | 0.00 | 0.00 | 79 | 1007.2 |
| 20260831012608 | 78 | 203 | 1.0 | 7.0 | 0.00 | 0.00 | 0.00 | 79 | 1007.1 |
| 20260831012044 | 79 | 244 | 1.0 | 7.0 | 0.00 | 0.00 | 0.00 | 79 | 1006.9 |
| 20260831011523 | 79 | 202 | 2.0 | 9.0 | 0.00 | 0.00 | 0.00 | 78 | 1007.0 |
| 20260831011008 | 79 | 329 | 2.0 | 9.0 | 0.00 | 0.00 | 0.00 | 77 | 1007.0 |
| 20260831010535 | 79 | 180 | 2.0 | 9.0 | 0.00 | 0.00 | 0.00 | 77 | 1006.9 |
| 20260831010035 | 80 | 321 | 2.0 | 9.0 | 0.00 | 0.00 | 0.00 | 76 | 1006.8 |
| 20260831005505 | 80 | 154 | 3.0 | 9.0 | 0.00 | 0.00 | 0.00 | 74 | 1006.6 |
| 20260831005047 | 81 | 188 | 2.0 | 12.0 | 0.00 | 0.00 | 0.00 | 73 | 1006.5 |
| 20260831004528 | 81 | 320 | 1.0 | 12.0 | 0.00 | 0.00 | 0.00 | 72 | 1006.5 |
| 20260831004104 | 81 | 180 | 2.0 | 7.0 | 0.00 | 0.00 | 0.00 | 71 | 1006.6 |
| 20260831003525 | 82 | 319 | 4.0 | 14.0 | 0.00 | 0.00 | 0.00 | 71 | 1006.7 |
| 20260831003101 | 82 | 240 | 3.0 | 14.0 | 0.00 | 0.00 | 0.00 | 71 | 1006.5 |
| 20260831002522 | 82 | 174 | 1.0 | 8.0 | 0.00 | 0.00 | 0.00 | 73 | 1006.4 |
| 20260831002051 | 82 | 238 | 1.0 | 8.0 | 0.00 | 0.00 | 0.00 | 72 | 1006.4 |
| 20260831001541 | 83 | 152 | 1.0 | 7.0 | 0.00 | 0.00 | 0.00 | 72 | 1006.2 |
| 20260831001012 | 83 | 176 | 1.0 | 7.0 | 0.00 | 0.00 | 0.00 | 71 | 1006.1 |
| 20260831000542 | 83 | 152 | 2.0 | 6.0 | 0.00 | 0.00 | 0.00 | 70 | 1006.1 |
| 20260831000031 | 84 | 202 | 2.0 | 8.0 | 0.00 | 0.00 | 0.00 | 69 | 1006.0 |
| 20260830235558 | 84 | 202 | 2.0 | 8.0 | 0.00 | 0.00 | 0.00 | 68 | 1006.0 |
| 20260830235027 | 85 | 149 | 2.0 | 7.0 | 0.00 | 0.00 | 0.00 | 68 | 1005.9 |
| 20260830234502 | 85 | 170 | 1.0 | 9.0 | 0.00 | 0.00 | 0.00 | 69 | 1005.9 |
| 20260830234021 | 85 | 278 | 2.0 | 9.0 | 0.00 | 0.00 | 0.00 | 69 | 1006.1 |
| 20260830233559 | 85 | 221 | 1.0 | 6.0 | 0.00 | 0.00 | 0.00 | 69 | 1006.1 |
| 20260830233016 | 85 | 275 | 2.0 | 8.0 | 0.00 | 0.00 | 0.00 | 68 | 1006.1 |
| 20260830232540 | 85 | 112 | 2.0 | 8.0 | 0.00 | 0.00 | 0.00 | 69 | 1006.1 |
| 20260830232025 | 85 | 279 | 2.0 | 10.0 | 0.00 | 0.00 | 0.00 | 69 | 1006.2 |
| 20260830231551 | 85 | 175 | 3.0 | 10.0 | 0.00 | 0.00 | 0.00 | 69 | 1006.1 |
| 20260830231029 | 85 | 238 | 3.0 | 10.0 | 0.00 | 0.00 | 0.00 | 71 | 1006.1 |
| 20260830230608 | 85 | 162 | 2.0 | 7.0 | 0.00 | 0.00 | 0.00 | 72 | 1006.1 |
| 20260830230027 | 85 | 171 | 2.0 | 6.0 | 0.00 | 0.00 | 0.00 | 72 | 1006.1 |
| 20260830225556 | 85 | 189 | 2.0 | 11.0 | 0.00 | 0.00 | 0.00 | 71 | 1006.1 |
| 20260830225032 | 85 | 221 | 2.0 | 9.0 | 0.00 | 0.00 | 0.00 | 70 | 1006.1 |
| 20260830224505 | 85 | 207 | 2.0 | 9.0 | 0.00 | 0.00 | 0.00 | 70 | 1006.2 |
| 20260830224031 | 86 | 164 | 2.0 | 7.0 | 0.00 | 0.00 | 0.00 | 70 | 1006.1 |
| 20260830223505 | 86 | 229 | 2.0 | 7.0 | 0.00 | 0.00 | 0.00 | 70 | 1005.9 |
| 20260830223045 | 86 | 152 | 3.0 | 9.0 | 0.00 | 0.00 | 0.00 | 71 | 1005.8 |
| 20260830222604 | 87 | 121 | 4.0 | 8.0 | 0.00 | 0.00 | 0.00 | 71 | 1005.7 |
| 20260830222018 | 87 | 182 | 3.0 | 7.0 | 0.00 | 0.00 | 0.00 | 71 | 1005.7 |
| 20260830221536 | 87 | 270 | 2.0 | 5.0 | 0.00 | 0.00 | 0.00 | 71 | 1005.8 |
| 20260830221007 | 87 | 156 | 2.0 | 8.0 | 0.00 | 0.00 | 0.00 | 70 | 1005.8 |
| 20260830220528 | 87 | 157 | 3.0 | 8.0 | 0.00 | 0.00 | 0.00 | 70 | 1005.9 |
| 20260830220110 | 87 | 145 | 3.0 | 10.0 | 0.00 | 0.00 | 0.00 | 70 | 1006.0 |
| 20260830215519 | 88 | 188 | 3.0 | 10.0 | 0.00 | 0.00 | 0.00 | 69 | 1005.9 |
| 20260830215047 | 88 | 199 | 3.0 | 7.0 | 0.00 | 0.00 | 0.00 | 69 | 1005.9 |
| 20260830214517 | 87 | 153 | 2.0 | 11.0 | 0.00 | 0.00 | 0.00 | 73 | 1005.9 |
| 20260830213508 | 87 | 136 | 3.0 | 8.0 | 0.00 | 0.00 | 0.00 | 73 | 1005.9 |
| 20260830213047 | 87 | 242 | 2.0 | 8.0 | 0.00 | 0.00 | 0.00 | 72 | 1005.8 |
| 20260830212512 | 87 | 121 | 3.0 | 9.0 | 0.00 | 0.00 | 0.00 | 73 | 1005.9 |
| 20260830212046 | 87 | 138 | 4.0 | 10.0 | 0.00 | 0.00 | 0.00 | 73 | 1005.9 |
| 20260830211515 | 86 | 167 | 5.0 | 10.0 | 0.00 | 0.00 | 0.00 | 73 | 1006.0 |
| 20260830211035 | 86 | 178 | 4.0 | 10.0 | 0.00 | 0.00 | 0.00 | 74 | 1006.2 |
| 20260830210508 | 86 | 157 | 2.0 | 8.0 | 0.00 | 0.00 | 0.00 | 75 | 1006.2 |
| 20260830210045 | 86 | 169 | 2.0 | 9.0 | 0.00 | 0.00 | 0.00 | 75 | 1006.2 |
| 20260830205522 | 85 | 129 | 4.0 | 9.0 | 0.00 | 0.00 | 0.00 | 74 | 1006.3 |
| 20260830205042 | 85 | 165 | 4.0 | 11.0 | 0.00 | 0.00 | 0.00 | 75 | 1006.3 |
| 20260830204602 | 85 | 136 | 4.0 | 11.0 | 0.00 | 0.00 | 0.00 | 75 | 1006.3 |
| 20260830204039 | 85 | 169 | 4.0 | 11.0 | 0.00 | 0.00 | 0.00 | 74 | 1006.4 |
| 20260830203603 | 85 | 161 | 1.0 | 7.0 | 0.00 | 0.00 | 0.00 | 75 | 1006.4 |
| 20260830203015 | 85 | 187 | 3.0 | 10.0 | 0.00 | 0.00 | 0.00 | 74 | 1006.6 |
| 20260830202527 | 85 | 170 | 1.0 | 9.0 | 0.00 | 0.00 | 0.00 | 76 | 1006.7 |
| 20260830202047 | 85 | 145 | 3.0 | 9.0 | 0.00 | 0.00 | 0.00 | 75 | 1006.7 |
| 20260830201502 | 85 | 186 | 2.0 | 9.0 | 0.00 | 0.00 | 0.00 | 76 | 1006.8 |
| 20260830201040 | 85 | 94 | 3.0 | 9.0 | 0.00 | 0.00 | 0.00 | 75 | 1006.9 |
| 20260830200516 | 85 | 166 | 3.0 | 12.0 | 0.00 | 0.00 | 0.00 | 74 | 1006.9 |
| 20260830200105 | 85 | 158 | 5.0 | 12.0 | 0.00 | 0.00 | 0.00 | 74 | 1006.7 |
| 20260830195535 | 84 | 155 | 3.0 | 9.0 | 0.00 | 0.00 | 0.00 | 76 | 1006.6 |
| 20260830195055 | 84 | 162 | 2.0 | 9.0 | 0.00 | 0.00 | 0.00 | 77 | 1006.7 |
| 20260830194523 | 84 | 167 | 2.0 | 9.0 | 0.00 | 0.00 | 0.00 | 77 | 1006.8 |
| 20260830194042 | 84 | 163 | 4.0 | 9.0 | 0.00 | 0.00 | 0.00 | 76 | 1006.9 |
| 20260830193516 | 84 | 155 | 4.0 | 9.0 | 0.00 | 0.00 | 0.00 | 75 | 1006.9 |
| 20260830193129 | 84 | 198 | 3.0 | 10.0 | 0.00 | 0.00 | 0.00 | 76 | 1006.8 |
| 20260830192511 | 84 | 146 | 3.0 | 10.0 | 0.00 | 0.00 | 0.00 | 75 | 1006.8 |
| 20260830192031 | 84 | 173 | 3.0 | 10.0 | 0.00 | 0.00 | 0.00 | 76 | 1006.8 |
| 20260830191503 | 84 | 140 | 4.0 | 11.0 | 0.00 | 0.00 | 0.00 | 75 | 1006.7 |
| 20260830191041 | 84 | 171 | 5.0 | 11.0 | 0.00 | 0.00 | 0.00 | 75 | 1006.8 |
| 20260830190601 | 84 | 154 | 2.0 | 10.0 | 0.00 | 0.00 | 0.00 | 77 | 1006.8 |
| 20260830190014 | 83 | 164 | 5.0 | 8.0 | 0.00 | 0.00 | 0.00 | 75 | 1006.9 |
| 20260830185555 | 83 | 82 | 3.0 | 6.0 | 0.00 | 0.00 | 0.00 | 76 | 1006.8 |
| 20260830185005 | 83 | 72 | 3.0 | 9.0 | 0.00 | 0.00 | 0.00 | 77 | 1006.9 |
| 20260830184532 | 83 | 155 | 3.0 | 8.0 | 0.00 | 0.00 | 0.00 | 77 | 1006.9 |
| 20260830184044 | 82 | 144 | 3.0 | 8.0 | 0.00 | 0.00 | 0.00 | 78 | 1007.0 |
| 20260830183606 | 82 | 145 | 3.0 | 7.0 | 0.00 | 0.00 | 0.00 | 79 | 1007.2 |
| 20260830183021 | 82 | 158 | 3.0 | 9.0 | 0.00 | 0.00 | 0.00 | 79 | 1007.4 |
| 20260830182559 | 81 | 200 | 3.0 | 9.0 | 0.00 | 0.00 | 0.00 | 79 | 1007.3 |
| 20260830182033 | 81 | 198 | 4.0 | 9.0 | 0.00 | 0.00 | 0.00 | 79 | 1007.5 |
| 20260830181553 | 80 | 205 | 4.0 | 9.0 | 0.00 | 0.00 | 0.00 | 80 | 1007.6 |
| 20260830181002 | 80 | 205 | 3.0 | 11.0 | 0.00 | 0.00 | 0.00 | 80 | 1007.7 |
| 20260830180542 | 80 | 151 | 5.0 | 11.0 | 0.00 | 0.00 | 0.00 | 79 | 1007.7 |
| 20260830175513 | 80 | 79 | 2.0 | 8.0 | 0.00 | 0.00 | 0.00 | 81 | 1007.5 |
| 20260830175032 | 80 | 265 | 4.0 | 8.0 | 0.00 | 0.00 | 0.00 | 80 | 1007.7 |
| 20260830174607 | 80 | 96 | 5.0 | 9.0 | 0.00 | 0.00 | 0.00 | 80 | 1007.7 |
| 20260830174002 | 79 | 82 | 3.0 | 9.0 | 0.00 | 0.00 | 0.00 | 82 | 1007.9 |
| 20260830173522 | 79 | 155 | 3.0 | 9.0 | 0.00 | 0.00 | 0.00 | 83 | 1007.9 |
| 20260830173103 | 78 | 141 | 4.0 | 10.0 | 0.00 | 0.00 | 0.00 | 82 | 1008.1 |
| 20260830172603 | 78 | 142 | 3.0 | 9.0 | 0.00 | 0.00 | 0.00 | 82 | 1008.3 |
| 20260830172015 | 78 | 146 | 4.0 | 8.0 | 0.00 | 0.00 | 0.00 | 83 | 1008.3 |
| 20260830171533 | 77 | 173 | 3.0 | 8.0 | 0.00 | 0.00 | 0.00 | 83 | 1008.4 |
| 20260830171054 | 77 | 222 | 2.0 | 7.0 | 0.00 | 0.00 | 0.00 | 84 | 1008.5 |
| 20260830170512 | 77 | 157 | 3.0 | 7.0 | 0.00 | 0.00 | 0.00 | 84 | 1008.5 |
| 20260830170047 | 77 | 205 | 2.0 | 7.0 | 0.00 | 0.00 | 0.00 | 84 | 1008.3 |
| 20260830165607 | 77 | 146 | 2.0 | 7.0 | 0.00 | 0.00 | 0.00 | 84 | 1008.2 |
| 20260830165037 | 77 | 164 | 1.0 | 8.0 | 0.00 | 0.00 | 0.00 | 84 | 1008.2 |
| 20260830164557 | 77 | 163 | 4.0 | 8.0 | 0.00 | 0.00 | 0.00 | 83 | 1008.3 |
| 20260830164007 | 77 | 151 | 3.0 | 10.0 | 0.00 | 0.00 | 0.00 | 83 | 1008.3 |
| 20260830163542 | 77 | 175 | 2.0 | 9.0 | 0.00 | 0.00 | 0.00 | 83 | 1008.3 |
| 20260830163003 | 77 | 153 | 2.0 | 9.0 | 0.00 | 0.00 | 0.00 | 83 | 1008.2 |
| 20260830162524 | 77 | 213 | 2.0 | 8.0 | 0.00 | 0.00 | 0.00 | 83 | 1008.1 |
| 20260830162044 | 77 | 140 | 4.0 | 8.0 | 0.00 | 0.00 | 0.00 | 82 | 1007.9 |
| 20260830161604 | 78 | 227 | 4.0 | 8.0 | 0.00 | 0.00 | 0.00 | 81 | 1007.7 |
| 20260830161036 | 78 | 160 | 2.0 | 8.0 | 0.00 | 0.00 | 0.00 | 81 | 1007.6 |
| 20260830160557 | 79 | 169 | 4.0 | 10.0 | 0.00 | 0.00 | 0.00 | 80 | 1007.5 |
| 20260830160031 | 79 | 202 | 3.0 | 10.0 | 0.00 | 0.00 | 0.00 | 81 | 1007.5 |
| 20260830155555 | 79 | 213 | 5.0 | 10.0 | 0.00 | 0.00 | 0.00 | 81 | 1007.5 |
| 20260830155005 | 79 | 153 | 3.0 | 10.0 | 0.00 | 0.00 | 0.00 | 81 | 1007.4 |
| 20260830154535 | 79 | 180 | 3.0 | 10.0 | 0.00 | 0.00 | 0.00 | 81 | 1007.5 |